Starlink 32875

operational
NORAD ID: 62951 Int'l Des: 2025-029 Owner: SPXS Country: US Constellation: starlink
LEOCIRCULAR

About Starlink 32875

Description loading...

Live Position

Loading 3D Globe...

Upcoming Passes

Altitude History

Altitude vs Time

uPlot chart will show altitude changes over time

Two-Line Element Set

1 62951U 25029D 25352.14150743 .00019864 00000-0 68098-3 0 9995
2 62951 53.1583 249.0133 0001292 91.6440 268.4709 15.30200740 48875
Epoch: Dec 18, 2025 • Age: 14 hours

Current Status

Altitude 477.0 km
Velocity 7.63 km/s
Sub-Earth Point 34.01°N, 76.6°W
Launch Date Feb 11, 2025
Age 0.8 years
Type internet

Technical Details

Classification Payload
Mass 730.00 kg
Dry Mass 700.00 kg
Total Mass 730.00 kg
Length 0.30 m
Diameter 4.10 m
Span 29.00 m
Shape Box + pan
Manufacturer SPXS
Bus Type Starlink V2M
Phase Status In Orbit
Owner/State SPXS/US

Large Constellations

Loading constellations...